Ketchikan, AK

2:48 AM AKST on January 21, 2019 (GMT -0900)
Ketchikan International

Weather History for PAKT - November, 2018

Change the Weather History Date:

Sunday, November 4, 2018

  Actual Average Record
Temperature  
Mean Temperature 47 °F -  
Max Temperature 48 °F 48 °F 64 °F (1970)
Min Temperature 46 °F 37 °F 19 °F (1973)
Degree Days  
Heating Degree Days 18    
Moisture  
Dew Point 46 °F    
Average Humidity 92    
Maximum Humidity 93    
Minimum Humidity 87    
Precipitation  
Precipitation 0.28 in - - ()
Sea Level Pressure  
Sea Level Pressure 29.61 in    
Wind  
Wind Speed 6 mph (SE)    
Max Wind Speed 12 mph    
Max Gust Speed -    
Visibility 7 miles    
Events Rain    
Averages and records for this station are not official NWS values.
T = Trace of Precipitation, MM = Missing Value Source: NWS Daily Summary

Daily Weather History Graph

Daily Weather History Graph

Search for Another Location

Airport or City:

Astronomy

Nov. 04, 2018 Rise Set
Actual Time 6:58 AM AKST 4:01 PM AKST
Civil Twilight 6:18 AM AKST 4:41 PM AKST
Nautical Twilight 5:35 AM AKST 5:24 PM AKST
Astronomical Twilight 4:52 AM AKST 6:07 PM AKST
Moon 2:44 AM AKST (11/4) 3:33 PM AKST (11/4)
Length of Visible Light 10h 22m
Length of Day
9h 03m
Waning Crescent, 9% of the Moon is Illuminated
Nov 4
Waning Crescent
Nov 7
New
Nov 15
First Quarter
Nov 22
Full
Nov 29
Last Quarter

Hourly Weather History & Observations

Time (AKST) Temp. Windchill Dew Point Humidity Pressure Visibility Wind Dir Wind Speed Gust Speed Precip Events Conditions
12:53 AM 46.9 °F - 44.1 °F 90% 29.51 in 10.0 mi SE 4.6 mph - N/A   Mostly Cloudy
1:53 AM 48.0 °F - 45.0 °F 89% 29.53 in 10.0 mi SE 5.8 mph - 0.02 in Rain Light Rain
1:53 AM 48.0 °F - 46.0 °F 93% 29.54 in 10.0 mi South 5.8 mph - 0.01 in Rain Light Rain
2:13 AM 48.0 °F - 46.0 °F 93% 29.55 in 5.0 mi SSE 5.8 mph - 0.01 in Rain Light Rain
2:53 AM 48.0 °F - 46.0 °F 93% 29.55 in 8.0 mi SE 4.6 mph - 0.05 in Rain Light Rain
3:51 AM 48.2 °F - 46.4 °F 93% 29.57 in 5.0 mi Calm Calm - 0.06 in Rain Light Rain
3:53 AM 48.0 °F - 46.0 °F 93% 29.58 in 6.0 mi Calm Calm - 0.06 in Rain Light Rain
4:53 AM 46.9 °F - 45.0 °F 93% 29.59 in 10.0 mi South 4.6 mph - 0.00 in   Overcast
5:53 AM 46.9 °F - 45.0 °F 93% 29.59 in 10.0 mi South 4.6 mph - 0.00 in   Overcast
6:06 AM 46.4 °F 43.5 °F 44.6 °F 93% 29.59 in 10.0 mi South 5.8 mph - N/A   Scattered Clouds
6:53 AM 48.2 °F - 44.6 °F 87% 29.60 in 10.0 mi SSE 5.8 mph - N/A Rain Light Rain
7:53 AM 48.2 °F - 46.4 °F 93% 29.60 in 4.0 mi SSE 4.6 mph - N/A Rain Light Rain
8:53 AM 48.2 °F - 46.4 °F 93% 29.60 in 3.0 mi SSE 4.6 mph - N/A Rain Rain
9:53 AM 48.2 °F - 46.4 °F 93% 29.61 in 3.0 mi SSE 4.6 mph - N/A Rain Light Rain
10:53 AM 48.2 °F - 46.4 °F 93% 29.62 in 7.0 mi ESE 9.2 mph - N/A Rain Light Rain
11:53 AM 48.2 °F - 46.4 °F 93% 29.62 in 6.0 mi ESE 6.9 mph - N/A Rain Light Rain
12:53 PM 48.2 °F - 46.4 °F 93% 29.63 in 3.0 mi ESE 5.8 mph - N/A Rain Rain
1:53 PM 48.2 °F - 46.4 °F 93% 29.63 in 10.0 mi SE 9.2 mph - N/A   Overcast
2:53 PM 48.2 °F - 46.4 °F 93% 29.63 in 10.0 mi SE 9.2 mph - N/A   Overcast
3:53 PM 48.2 °F - 46.4 °F 93% 29.64 in 10.0 mi SE 11.5 mph - N/A   Overcast
4:53 PM 48.2 °F - 46.4 °F 93% 29.65 in 7.0 mi SE 5.8 mph - N/A Rain Light Rain
5:53 PM 48.2 °F - 46.4 °F 93% 29.65 in 10.0 mi SE 11.5 mph - N/A Rain Light Rain
6:53 PM 48.2 °F - 46.4 °F 93% 29.65 in 10.0 mi SE 6.9 mph - N/A   Overcast
7:53 PM 48.2 °F - 46.4 °F 93% 29.66 in 10.0 mi SE 8.1 mph - N/A Rain Light Rain
8:49 PM 48.2 °F - 46.4 °F 93% 29.66 in 3.0 mi SSE 6.9 mph - N/A Rain Light Rain
8:53 PM 48.2 °F - 46.4 °F 93% 29.67 in 3.0 mi SSE 5.8 mph - N/A Rain Light Rain
9:53 PM 48.0 °F - 45.0 °F 89% 29.67 in 3.0 mi SSE 6.9 mph - 0.11 in Rain Light Rain
10:53 PM 48.0 °F - 45.0 °F 89% 29.68 in 10.0 mi SE 6.9 mph - 0.04 in   Overcast